Skip Navigation Linkswww.weather.gov 
NOAA logo - Click to go to the NOAA homepage National Weather Service Forecast Office   NWS logo - Click to go to the NWS homepage    
Los Angeles, California
navigation bar decoration      
spacer
Printer Friendly  |   Go Back  |  Version: Current   1   2   3   4   5   6   7   8   9   10   |  Font:  A A A  |  
This version is NOT current and may no longer be valid!

HOURLY WEATHER ROUNDUP
 
 ASUS46 KSTO 011909
RWRCA

NORTHERN AND CENTRAL CA REGIONAL WEATHER ROUNDUP
NATIONAL WEATHER SERVICE SACRAMENTO CA
1200 PM PDT TUE SEP 01 2015

NOTE: FAIR INDICATES FEW OR NO CLOUDS BELOW 12,000 FEET WITH NO
SIGNIFICANT WEATHER AND/OR OBSTRUCTIONS TO VISIBILITY.

CAZ001-003-012000-
NORTHWEST AREA

CITY SKY/WX TMP DP RH WIND PRES REMARKS
CRESCENT CITY SUNNY 65 58 78 S9 29.97F
ARCATA NOT AVBL
SHELTER COVE NOT AVBL
UKIAH SUNNY 83 52 34 VRB3 29.85F
$$

CAZ006-505>513-012000-
BAY AREA

CITY SKY/WX TMP DP RH WIND PRES REMARKS
SANTA ROSA MOSUNNY 77 54 44 VRB5 29.85F
SAN RAFAEL N/A 67 MM MM MISG
NAPA SUNNY 72 58 61 SW13 29.89F
CONCORD SUNNY 81 52 36 S13 29.86F
OAKLAND CITY N/A 72 MM MM MISG
OAKLAND MOSUNNY 71 56 58 S6 29.90S
SAN FRAN CITY N/A 66 MM 68 MISG
SAN FRAN ARPT MOSUNNY 72 56 57 S12 29.90S
LIVERMORE SUNNY 82 50 32 SW8 29.87F
HAYWARD SUNNY 71 56 58 W7 29.90S
REDWOOD CITY N/A MM MM MM MISG
MOFFETT ARPT SUNNY 76 57 51 N7 29.90S
SAN JOSE ARPT MOSUNNY 75 55 49 SE3 29.88F
$$
CAZ034-037-514>518-012000-
CENTRAL COAST

CITY SKY/WX TMP DP RH WIND PRES REMARKS
WATSONVILLE CLOUDY 65 56 72 SW7 29.95F
SALINAS CLOUDY 68 56 65 VRB5 29.94F
MONTEREY CLOUDY 67 56 67 SW7 29.95F
PT PIEDRAS BLS NOT AVBL
SAN LUIS OBISP CLOUDY 68 56 65 S12 29.96F
SANTA MARIA CLOUDY 71 58 63 CALM 29.96F
$$
CAZ015-016-012000-
NORTHERN SACRAMENTO VALLEY

CITY SKY/WX TMP DP RH WIND PRES REMARKS
REDDING SUNNY 86 48 26 SE3 N/A
RED BLUFF SUNNY 85 46 25 S5 29.85F
OROVILLE SUNNY 84 50 30 VRB3 29.86F
$$
CAZ016>018-012000-
SOUTHERN SACRAMENTO VALLEY

CITY SKY/WX TMP DP RH WIND PRES REMARKS
AUBURN SUNNY 84 45 24 SW6 29.91S
LINCOLN FAIR 86 41 20 S5 29.84F
MARYSVILLE SUNNY 84 50 30 VRB5 29.84F
SAC INTL ARPT MOSUNNY 80 56 43 S6 29.84F
MATHER AIRPORT SUNNY 82 48 30 W6 29.85F
DOWNTOWN SAC N/A 83 MM MM MISG
SAC EXEC ARPT SUNNY 82 54 37 SW8 29.85F
VACAVILLE SUNNY 84 54 35 S5 29.86F
TRAVIS AFB SUNNY 79 55 43 SW15 29.84F
$$
CAZ019>021-012000-
SAN JOAQUIN VALLEY

CITY SKY/WX TMP DP RH WIND PRES REMARKS
STOCKTON SUNNY 84 54 35 NW3 29.85F
MODESTO SUNNY 86 48 26 VRB5 29.84F
MERCED SUNNY 87 50 27 CALM 29.84F
LEMOORE MOSUNNY 89 48 24 VRB5 29.85F
FRESNO SUNNY 88 46 23 W3 29.85F
HANFORD SUNNY 88 48 25 SW5 29.85F
PORTERVILLE SUNNY 88 48 25 SW9 29.87F
BAKERSFIELD SUNNY 87 44 22 VRB5 29.86F
$$
CAZ011-012-071-012000-
NORTHERN MOUNTAINS

CITY SKY/WX TMP DP RH WIND PRES REMARKS
YREKA SUNNY 76 43 30 CALM 29.93F
MOUNT SHASTA SUNNY 80 43 26 VRB3 29.96F
ALTURAS SUNNY 77 36 22 VRB5 29.99F
$$
CAZ011-012-071-012000-
SIERRA NEVADA MTNS

CITY SKY/WX TMP DP RH WIND PRES REMARKS
BLUE CANYON SUNNY 71 38 29 SW7 30.11S
TRUCKEE SUNNY 75 27 16 SW9 30.09F
TAHOE VLY ARPT SUNNY 75 37 25 NE9 30.11F
MAMMOTH LAKES FAIR 75 25 15 SE8 30.17F
$$



Webmaster
US Dept of Commerce
National Oceanic and Atmospheric Administration
National Weather Service
Los Angeles/Oxnard Weather Forecast Office
520 North Elevar Street
Oxnard, CA 93030

Tel: (805) 988-6610

Disclaimer
Information Quality
Credits
Glossary
Organization
Privacy Policy
Freedom of Information Act
About Us
Career Opportunities